Terug naar catalogus

QAEM 100 R/B

ActiefVLEO
NORAD 61071·ROCKET BODY·🇮🇷 Iran

Gelanceerd Sep 14, 2024 vanaf Shahroud Space Center

Loading…

Volgende Passages (komende 24 uur)

TLE

VersSource: Space-Track

Epoch: Sep 14, 2026, 13:54 UTC

1 61071U 24165A   26257.57950410  .00002054  00000-0  11200-3 0  9994
2 61071  64.0711  95.5998 0074197 298.4871  60.8787 15.15464277110402

Volg QAEM 100 R/B in realtime met AllMySat

Download on the App Store